Time,TemperatureF,DewpointF,PressureIn,WindDirection,WindDirectionDegrees,WindSpeedMPH,WindSpeedGustMPH,Humidity,HourlyPrecipIn,Conditions,Clouds,dailyrainin,SoftwareType,DateUTC
2013-05-02 00:12:00,40.4,34.0,30.43,NW,318,13.0,26.0,79,0.00,,,0.00,weatherlink.com 1.10,2013-05-02 05:12:00,
2013-05-02 00:27:00,40.4,34.0,30.45,NW,319,15.0,26.0,79,0.00,,,0.00,weatherlink.com 1.10,2013-05-02 05:27:00,
2013-05-02 00:42:00,40.4,35.0,30.45,North,350,13.0,29.0,80,0.00,,,0.00,weatherlink.com 1.10,2013-05-02 05:42:00,
2013-05-02 00:57:00,40.2,35.0,30.46,NW,305,14.0,29.0,80,0.00,,,0.00,weatherlink.com 1.10,2013-05-02 05:57:00,
2013-05-02 01:12:00,40.0,35.0,30.46,NW,315,21.0,26.0,81,0.00,,,0.00,weatherlink.com 1.10,2013-05-02 06:12:00,
2013-05-02 01:27:00,39.4,35.0,30.45,NNW,344,20.0,32.0,84,0.00,,,0.00,weatherlink.com 1.10,2013-05-02 06:27:00,
2013-05-02 01:42:00,38.7,36.0,30.45,NNW,331,10.0,29.0,88,0.00,,,0.00,weatherlink.com 1.10,2013-05-02 06:42:00,
2013-05-02 01:57:00,38.6,36.0,30.45,NNW,331,16.0,24.0,89,0.00,,,0.00,weatherlink.com 1.10,2013-05-02 06:57:00,
2013-05-02 02:12:00,38.4,35.0,30.45,NW,324,13.0,28.0,88,0.00,,,0.00,weatherlink.com 1.10,2013-05-02 07:12:00,
2013-05-02 02:27:00,38.5,35.0,30.45,North,360,8.0,27.0,88,0.00,,,0.00,weatherlink.com 1.10,2013-05-02 07:27:00,
2013-05-02 02:42:00,38.3,35.0,30.43,NNW,340,27.0,30.0,87,0.00,,,0.00,weatherlink.com 1.10,2013-05-02 07:42:00,
2013-05-02 02:57:00,38.3,35.0,30.43,NNW,336,26.0,31.0,87,0.00,,,0.00,weatherlink.com 1.10,2013-05-02 07:57:00,
2013-05-02 03:12:00,38.3,35.0,30.42,North,360,26.0,33.0,86,0.00,,,0.00,weatherlink.com 1.10,2013-05-02 08:12:00,
2013-05-02 03:27:00,38.4,35.0,30.42,North,355,22.0,29.0,86,0.00,,,0.00,weatherlink.com 1.10,2013-05-02 08:27:00,
2013-05-02 03:42:00,38.5,34.0,30.41,NNE,31,21.0,39.0,85,0.00,,,0.00,weatherlink.com 1.10,2013-05-02 08:42:00,
2013-05-02 03:57:00,38.6,35.0,30.43,NNW,338,27.0,28.0,85,0.00,,,0.00,weatherlink.com 1.10,2013-05-02 08:57:00,
2013-05-02 04:12:00,38.7,34.0,30.42,North,360,22.0,32.0,84,0.00,,,0.00,weatherlink.com 1.10,2013-05-02 09:12:00,
2013-05-02 04:27:00,38.6,34.0,30.43,North,5,15.0,29.0,84,0.00,,,0.00,weatherlink.com 1.10,2013-05-02 09:27:00,
2013-05-02 04:42:00,38.8,34.0,30.45,North,355,10.0,29.0,84,0.00,,,0.00,weatherlink.com 1.10,2013-05-02 09:42:00,
2013-05-02 04:57:00,38.6,34.0,30.45,NNW,329,18.0,30.0,84,0.00,,,0.00,weatherlink.com 1.10,2013-05-02 09:57:00,
2013-05-02 05:12:00,38.2,34.0,30.46,North,355,18.0,29.0,86,0.00,,,0.00,weatherlink.com 1.10,2013-05-02 10:12:00,
2013-05-02 05:27:00,37.9,34.0,30.46,NW,310,8.0,29.0,87,0.00,,,0.00,weatherlink.com 1.10,2013-05-02 10:27:00,
2013-05-02 05:43:00,37.5,34.0,30.48,NW,325,15.0,25.0,87,0.00,,,0.00,weatherlink.com 1.10,2013-05-02 10:43:00,
2013-05-02 05:58:00,36.8,34.0,30.47,NNW,329,16.0,26.0,89,0.03,,,0.00,weatherlink.com 1.10,2013-05-02 10:58:00,
2013-05-02 06:13:00,36.7,34.0,30.46,North,349,22.0,25.0,90,0.03,,,0.00,weatherlink.com 1.10,2013-05-02 11:13:00,
2013-05-02 06:28:00,36.8,34.0,30.47,NNW,329,12.0,24.0,90,0.04,,,0.01,weatherlink.com 1.10,2013-05-02 11:28:00,
2013-05-02 06:43:00,36.7,34.0,30.48,NNW,333,16.0,25.0,89,0.04,,,0.01,weatherlink.com 1.10,2013-05-02 11:43:00,
2013-05-02 06:58:00,36.4,34.0,30.46,NW,317,11.0,27.0,89,0.02,,,0.02,weatherlink.com 1.10,2013-05-02 11:58:00,
2013-05-02 07:13:00,36.2,34.0,30.48,NNW,346,16.0,23.0,91,0.03,,,0.03,weatherlink.com 1.10,2013-05-02 12:13:00,
2013-05-02 07:28:00,36.1,34.0,30.50,NNW,347,13.0,18.0,91,0.05,,,0.06,weatherlink.com 1.10,2013-05-02 12:28:00,
2013-05-02 07:43:00,36.0,34.0,30.50,North,350,4.0,20.0,92,0.10,,,0.11,weatherlink.com 1.10,2013-05-02 12:43:00,
2013-05-02 07:58:00,35.5,33.0,30.50,NNW,341,14.0,24.0,92,0.14,,,0.16,weatherlink.com 1.10,2013-05-02 12:58:00,
2013-05-02 08:13:00,35.4,34.0,30.47,North,5,18.0,22.0,93,0.18,,,0.21,weatherlink.com 1.10,2013-05-02 13:13:00,
2013-05-02 08:28:00,35.5,34.0,30.49,NNW,335,12.0,20.0,93,0.19,,,0.25,weatherlink.com 1.10,2013-05-02 13:28:00,
2013-05-02 08:43:00,35.0,33.0,30.48,WNW,299,9.0,20.0,93,0.17,,,0.28,weatherlink.com 1.10,2013-05-02 13:43:00,
2013-05-02 08:58:00,35.0,33.0,30.52,NW,304,11.0,14.0,93,0.16,,,0.32,weatherlink.com 1.10,2013-05-02 13:58:00,
2013-05-02 09:13:00,34.8,33.0,30.53,NW,325,10.0,15.0,93,0.14,,,0.35,weatherlink.com 1.10,2013-05-02 14:13:00,
2013-05-02 09:28:00,34.7,33.0,30.51,NNW,329,10.0,19.0,94,0.13,,,0.38,weatherlink.com 1.10,2013-05-02 14:28:00,
2013-05-02 09:58:00,34.2,33.0,30.50,North,355,14.0,24.0,94,0.10,,,0.42,weatherlink.com 1.10,2013-05-02 14:58:00,
2013-05-02 10:13:00,34.3,33.0,30.49,NNW,340,15.0,24.0,94,0.09,,,0.44,weatherlink.com 1.10,2013-05-02 15:13:00,
2013-05-02 10:28:00,34.3,33.0,30.49,NW,317,15.0,23.0,94,0.08,,,0.46,weatherlink.com 1.10,2013-05-02 15:28:00,
2013-05-02 10:43:00,34.2,33.0,30.48,WNW,300,5.0,24.0,94,0.05,,,0.46,weatherlink.com 1.10,2013-05-02 15:43:00,
2013-05-02 10:58:00,34.4,33.0,30.49,NNW,337,8.0,20.0,94,0.04,,,0.46,weatherlink.com 1.10,2013-05-02 15:58:00,
2013-05-02 11:13:00,34.7,33.0,30.48,NW,326,8.0,21.0,94,0.03,,,0.47,weatherlink.com 1.10,2013-05-02 16:13:00,
2013-05-02 11:28:00,35.0,34.0,30.50,NNW,333,10.0,22.0,94,0.01,,,0.47,weatherlink.com 1.10,2013-05-02 16:28:00,
2013-05-02 11:43:00,35.2,33.0,30.51,NW,319,10.0,18.0,93,0.01,,,0.47,weatherlink.com 1.10,2013-05-02 16:43:00,
2013-05-02 11:58:00,35.2,33.0,30.51,NW,317,16.0,20.0,93,0.01,,,0.47,weatherlink.com 1.10,2013-05-02 16:58:00,
2013-05-02 12:13:00,35.4,34.0,30.51,WNW,293,8.0,20.0,93,0.01,,,0.48,weatherlink.com 1.10,2013-05-02 17:13:00,
2013-05-02 12:28:00,35.1,33.0,30.50,NE,54,7.0,23.0,92,0.01,,,0.48,weatherlink.com 1.10,2013-05-02 17:28:00,
2013-05-02 12:43:00,35.2,33.0,30.50,NW,321,9.0,25.0,92,0.01,,,0.48,weatherlink.com 1.10,2013-05-02 17:43:00,
2013-05-02 12:58:00,35.1,33.0,30.50,NNW,331,21.0,25.0,91,0.00,,,0.48,weatherlink.com 1.10,2013-05-02 17:58:00,
2013-05-02 13:13:00,35.3,33.0,30.50,NW,310,7.0,25.0,91,0.00,,,0.48,weatherlink.com 1.10,2013-05-02 18:13:00,
2013-05-02 13:28:00,35.5,33.0,30.49,WNW,301,8.0,23.0,90,0.00,,,0.48,weatherlink.com 1.10,2013-05-02 18:28:00,
2013-05-02 13:43:00,35.4,33.0,30.49,NNW,348,8.0,26.0,90,0.00,,,0.48,weatherlink.com 1.10,2013-05-02 18:43:00,
2013-05-02 13:58:00,35.6,33.0,30.49,NNE,19,13.0,24.0,89,0.00,,,0.48,weatherlink.com 1.10,2013-05-02 18:58:00,
2013-05-02 14:13:00,35.5,33.0,30.49,NW,309,20.0,28.0,89,0.00,,,0.48,weatherlink.com 1.10,2013-05-02 19:13:00,
2013-05-02 14:28:00,35.5,33.0,30.50,WNW,300,22.0,25.0,90,0.00,,,0.48,weatherlink.com 1.10,2013-05-02 19:28:00,
2013-05-02 14:43:00,35.4,33.0,30.49,North,360,11.0,25.0,90,0.00,,,0.48,weatherlink.com 1.10,2013-05-02 19:43:00,
2013-05-02 14:58:00,35.3,33.0,30.49,NW,319,15.0,24.0,90,0.00,,,0.48,weatherlink.com 1.10,2013-05-02 19:58:00,
2013-05-02 15:13:00,35.1,33.0,30.48,NW,317,12.0,24.0,91,0.00,,,0.48,weatherlink.com 1.10,2013-05-02 20:13:00,
2013-05-02 15:28:00,35.2,33.0,30.49,NNW,348,16.0,24.0,91,0.00,,,0.48,weatherlink.com 1.10,2013-05-02 20:28:00,
2013-05-02 15:43:00,35.5,33.0,30.49,NNW,327,18.0,20.0,91,0.00,,,0.48,weatherlink.com 1.10,2013-05-02 20:43:00,
2013-05-02 15:58:00,35.5,33.0,30.48,WNW,292,11.0,25.0,90,0.00,,,0.48,weatherlink.com 1.10,2013-05-02 20:58:00,
2013-05-02 16:13:00,35.5,33.0,30.49,WSW,248,8.0,25.0,89,0.00,,,0.48,weatherlink.com 1.10,2013-05-02 21:13:00,
2013-05-02 16:28:00,35.4,32.0,30.49,NW,304,6.0,24.0,88,0.00,,,0.48,weatherlink.com 1.10,2013-05-02 21:28:00,
2013-05-02 16:43:00,35.1,32.0,30.48,NW,310,10.0,26.0,89,0.00,,,0.48,weatherlink.com 1.10,2013-05-02 21:43:00,
2013-05-02 16:58:00,34.8,32.0,30.48,NNW,333,18.0,25.0,90,0.00,,,0.48,weatherlink.com 1.10,2013-05-02 21:58:00,
2013-05-02 17:13:00,34.7,32.0,30.49,NNE,15,6.0,23.0,91,0.00,,,0.48,weatherlink.com 1.10,2013-05-02 22:13:00,
2013-05-02 17:28:00,34.8,33.0,30.48,WNW,291,22.0,22.0,91,0.00,,,0.48,weatherlink.com 1.10,2013-05-02 22:28:00,
2013-05-02 17:43:00,34.8,33.0,30.48,NNW,333,15.0,23.0,92,0.00,,,0.48,weatherlink.com 1.10,2013-05-02 22:43:00,
2013-05-02 17:58:00,35.0,32.0,30.48,NNW,327,19.0,26.0,90,0.00,,,0.48,weatherlink.com 1.10,2013-05-02 22:58:00,
2013-05-02 18:13:00,34.8,32.0,30.48,NNW,338,10.0,24.0,90,0.01,,,0.49,weatherlink.com 1.10,2013-05-02 23:13:00,
2013-05-02 18:28:00,34.7,32.0,30.47,NNW,334,14.0,22.0,91,0.01,,,0.49,weatherlink.com 1.10,2013-05-02 23:28:00,
2013-05-02 18:43:00,34.6,33.0,30.46,NNE,28,7.0,23.0,92,0.01,,,0.49,weatherlink.com 1.10,2013-05-02 23:43:00,
2013-05-02 18:58:00,34.5,33.0,30.46,WNW,286,12.0,21.0,92,0.01,,,0.49,weatherlink.com 1.10,2013-05-02 23:58:00,
2013-05-02 19:13:00,34.7,33.0,30.45,WNW,301,9.0,21.0,92,0.00,,,0.49,weatherlink.com 1.10,2013-05-03 00:13:00,
2013-05-02 19:28:00,34.7,32.0,30.46,NNW,336,24.0,24.0,91,0.00,,,0.49,weatherlink.com 1.10,2013-05-03 00:28:00,
2013-05-02 19:43:00,34.8,33.0,30.47,NNW,348,14.0,21.0,91,0.01,,,0.50,weatherlink.com 1.10,2013-05-03 00:43:00,
2013-05-02 19:58:00,34.8,33.0,30.48,WNW,302,10.0,19.0,91,0.01,,,0.50,weatherlink.com 1.10,2013-05-03 00:58:00,
2013-05-02 20:13:00,34.6,32.0,30.46,NNW,328,10.0,24.0,90,0.01,,,0.50,weatherlink.com 1.10,2013-05-03 01:13:00,
2013-05-02 20:28:00,34.6,32.0,30.49,NNW,337,6.0,23.0,91,0.01,,,0.50,weatherlink.com 1.10,2013-05-03 01:28:00,
2013-05-02 20:43:00,34.3,32.0,30.48,NW,319,12.0,21.0,91,0.00,,,0.50,weatherlink.com 1.10,2013-05-03 01:43:00,
2013-05-02 20:58:00,34.1,32.0,30.48,NW,323,13.0,22.0,92,0.00,,,0.50,weatherlink.com 1.10,2013-05-03 01:58:00,
2013-05-02 21:13:00,34.0,32.0,30.48,NW,321,7.0,20.0,92,0.00,,,0.50,weatherlink.com 1.10,2013-05-03 02:13:00,
2013-05-02 21:29:00,33.9,32.0,30.48,NW,320,15.0,18.0,93,0.00,,,0.50,weatherlink.com 1.10,2013-05-03 02:29:00,
2013-05-02 21:44:00,33.9,32.0,30.47,NW,315,15.0,19.0,93,0.00,,,0.50,weatherlink.com 1.10,2013-05-03 02:44:00,
2013-05-02 21:59:00,33.8,32.0,30.46,North,355,9.0,23.0,93,0.00,,,0.50,weatherlink.com 1.10,2013-05-03 02:59:00,
2013-05-02 22:14:00,33.7,32.0,30.45,WNW,299,19.0,23.0,93,0.01,,,0.51,weatherlink.com 1.10,2013-05-03 03:14:00,
2013-05-02 22:29:00,33.8,32.0,30.47,NNW,340,15.0,20.0,93,0.01,,,0.51,weatherlink.com 1.10,2013-05-03 03:29:00,
2013-05-02 22:44:00,33.8,32.0,30.48,NW,316,9.0,16.0,92,0.01,,,0.51,weatherlink.com 1.10,2013-05-03 03:44:00,
2013-05-02 22:59:00,33.6,32.0,30.46,NW,321,14.0,21.0,92,0.01,,,0.51,weatherlink.com 1.10,2013-05-03 03:59:00,
2013-05-02 23:14:00,33.2,31.0,30.44,NW,310,16.0,24.0,93,0.00,,,0.51,weatherlink.com 1.10,2013-05-03 04:14:00,
2013-05-02 23:29:00,33.2,31.0,30.43,NW,324,13.0,20.0,93,0.00,,,0.51,weatherlink.com 1.10,2013-05-03 04:29:00,
2013-05-02 23:44:00,32.9,31.0,30.43,NNW,344,11.0,24.0,93,0.00,,,0.51,weatherlink.com 1.10,2013-05-03 04:44:00,
2013-05-02 23:59:00,32.9,31.0,30.43,NW,321,16.0,22.0,93,0.00,,,0.51,weatherlink.com 1.10,2013-05-03 04:59:00,